Regional Weather Roundup
Issued by NWS

Home | Current Version | Previous Version | Graphics & Text | Print | Product List | Glossary On
Versions: 1 2 3 4 5 6 7 8 9 10 11 12 13 14 15 16 17 18 19 20 21 22 23 24 25 26 27 28 29 30 31 32 33 34 35 36 37 38 39 40 41 42 43 44 45 46 47 48 49 50
000
ASUS43 KDMX 250906
RWRIA

WEATHER ROUNDUP FOR IOWA
NATIONAL WEATHER SERVICE DES MOINES IA
400 AM CDT MON SEP 25 2017

NOTE: "FAIR" INDICATES FEW OR NO CLOUDS BELOW 12,000 FEET WITH NO
SIGNIFICANT WEATHER AND/OR OBSTRUCTIONS TO VISIBILITY.

* - THESE STATIONS ARE NOT NWS STATIONS...THUS NOT UNDER NWS
QUALITY CONTROL.  THEY ALSO DO NOT REPORT WEATHER SUCH
AS PRECIPITATION OR FOG.

IAZ001>003-012>014-020>022-031>034-043>046-251000-
   NORTHWEST IOWA

CITY           SKY/WX    TMP DP  RH WIND       PRES   REMARKS
CARROLL *      CLOUDY    66  66 100 NW5       29.93F
CHEROKEE *     LGT RAIN  59  59 100 N5        29.97S
DENISON *      CLOUDY    63  61  94 CALM      29.94F
LE MARS *      LGT RAIN  57  55  94 VRB5G13   29.97F
ORANGE CITY *  RAIN      57  57 100 N10       29.96F
SHELDON *      RAIN      57  57 100 N12       29.96F
SIOUX CITY     LGT RAIN  57  57 100 NW9       29.97F
SPENCER        MOCLDY    60  58  92 N8        29.97S
STORM LAKE *   CLOUDY    63  61  94 NW6       29.96S
$$

IAZ055>058-069>071-079>083-090>094-251000-
   SOUTHWEST IOWA

CITY           SKY/WX    TMP DP  RH WIND       PRES   REMARKS
ATLANTIC *     CLOUDY    64  64 100 NE9       29.92F
AUDUBON *      CLOUDY    64  63  94 N7        29.94F
CLARINDA *     CLOUDY    64  64 100 CALM      29.94F
COUNCIL BLFS * CLOUDY    64  64 100 NW12G18   29.93R
CRESTON *      MOCLDY    68  64  88 CALM      29.95F
HARLAN  *      CLOUDY    63  63 100 NE10      29.95F
LAMONI         PTCLDY    69  64  84 S7        29.94S
RED OAK *      CLEAR     63  63 100 NE3       29.92S
SHENANDOAH *   CLEAR     64  63  94 E8        29.92S
$$

IAZ047>049-059>061-072>074-084-251000-
   CENTRAL IOWA

CITY           SKY/WX    TMP DP  RH WIND       PRES   REMARKS
AMES           CLEAR     63  63 100 SE3       29.92F
ANKENY *       PTCLDY    66  63  88 CALM      29.93F
BOONE *        PTCLDY    66  63  88 CALM      29.92S
CHARITON *     CLEAR     66  63  88 S6        29.93F
DES MOINES     PTCLDY    71  63  75 SE7       29.91F
GRINNELL*      CLEAR     66  61  83 SE3       29.95S
KNOXVILLE *    CLEAR     68  63  83 S6        29.92F
MARSHALLTOWN   CLEAR     66  62  87 CALM      29.92F
NEWTON *       PTCLDY    66  63  88 S6        29.93F
PELLA *        CLEAR     68  62  81 CALM      29.94S
PERRY *          N/A     64  63  97 W7        29.93S
$$

IAZ004>006-015-016-023>025-035-036-251000-
   NORTH CENTRAL IOWA

CITY           SKY/WX    TMP DP  RH WIND       PRES   REMARKS
ALGONA *       CLOUDY    64  64 100 NW10G17   29.97R
CLARION *      CLOUDY    66  66 100 CALM      29.92F
ESTHERVILLE    MOCLDY    56  56 100 N8        29.97S
FORT DODGE *   MOCLDY    66  65  96 CALM      29.93F
MASON CITY     PTCLDY    63  62  97 E3        29.95F
FOREST CITY *    N/A     68  64  88 N3        29.94S
WEBSTER CITY * PTCLDY    64  63  94 E3        29.91S
IOWA FALLS *     N/A     64  61  92 E3        29.94F
$$

IAZ007>011-017>019-026>030-037>042-050>054-066-251000-
   NORTHEAST IOWA

CITY           SKY/WX    TMP DP  RH WIND       PRES   REMARKS
CEDAR RAPIDS   CLEAR     67  62  84 S3        29.94S
CHARLES CITY * CLEAR     63  63 100 CALM      29.94S
CLINTON *      CLEAR    N/A N/A N/A E6        29.97S
DECORAH *      CLEAR     64  63  94 CALM      29.94F
DUBUQUE        CLEAR     68  60  75 S5        29.97S
MONTICELLO *   CLEAR     61  59  94 CALM      29.95S
OELWEIN *      MOCLDY    66  63  88 SE7       29.95S
WATERLOO       PTCLDY    68  61  78 S3        29.92S
$$

IAZ064-065-067-068-078-251000-
   EAST CENTRAL IOWA

CITY           SKY/WX    TMP DP  RH WIND       PRES   REMARKS
DAVENPORT      CLEAR     64  61  90 CALM      29.98R
IOWA CITY      CLEAR     66  62  87 CALM      29.96S
MUSCATINE *    CLEAR     66  63  88 CALM      29.96R
QUAD CITIES    CLEAR     66  60  81 CALM      29.96R
$$

IAZ062-063-075>077-085>089-095>099-251000-
   SOUTHEAST IOWA

CITY           SKY/WX    TMP DP  RH WIND       PRES   REMARKS
BURLINGTON     CLEAR     68  63  84 SE3       29.95S
FAIRFIELD *    CLEAR     64  61  88 CALM      29.94S
FORT MADISON * CLEAR     72  63  73 S5        29.96S
KEOKUK *       CLEAR     68  63  83 E5        29.95R
OSKALOOSA *      N/A     65  62  90 CALM      29.94F
OTTUMWA        CLEAR     70  63  78 S5        29.94F
WASHINGTON *   CLEAR     64  63  94 CALM      29.96S
$$

ABBREVIATIONS USED IN REMARKS
   TC - TEMPERATURES IN CELSIUS
  WCI - WIND CHILL INDEX
   HX - HEAT INDEX
  VSB - VISIBILITY
$$





USA.gov is the U.S. government's official web portal to all federal, state and local government web resources and services.